Location: Dallas
(32.7833°N, 96.8000°W)
Time: 01:14:14
(UTC-06:00)

Envisat - Pass Details

Date: 28 October 2019
Orbit: 764 x 766 km, 98.1° (Epoch: 12 November)

Event Time Altitude Azimuth Distance (km) Brightness Sun altitude
Rises 19:09:44 0° 152° (SSE) 3,217 6.1 -6.9°
Reaches altitude 10° 19:12:05 10° 147° (SSE) 2,294 5.3 -7.4°
Maximum altitude 19:16:56 48° 74° (ENE) 996 3.2 -8.4°
Drops below altitude 10° 19:21:48 10° 1° (N) 2,306 5.4 -9.4°
Sets 19:24:10 0° 355° (N) 3,235 6.2 -9.9°
